User: anonymous   Login
Location: Unspecified
(0.0000°N, 0.0000°E)
Time: 00:06:53
(UTC+00:00)
Language:

TES - Orbit

View from above orbital plane
View from above orbital plane
View from above satellite
View from above satellite

Ground track
Ground track

The orbit data is extracted from the following two-line orbital elements,

1 26957U 01049A   18112.55811189 +.00000831 +00000-0 +53251-4 0  9996
2 26957 097.6734 217.9991 0040153 046.5488 076.3111 15.10762389905110
Epoch (UTC): 22 April 2018 13:23:40
Eccentricity: 0.0040153
inclination: 97.6734°
perigee height: 506 km
apogee height: 561 km
right ascension of ascending node: 217.9991°
argument of perigee: 46.5488°
revolutions per day: 15.10762389
mean anomaly at epoch: 76.3111°
orbit number at epoch: 90511

The dashed part of the orbit path shows where the satellite is in the earth's shadow,  

DLR